JAL12 RJTT-KDFW

Flight info

Callsign JAL12
Flight time N/A
Altitude 33000
Route INUBO Y808 NOLAX Y814 AVBET OTR9 EMRON 43N160E 47N170E/N0494F350 50N180E 52N170W 53N160W 54N150W/N0485F370 54N140W DCT KATCH DCT YZP DCT LOKBO DCT JANEK DCT IWACK DCT ZOOMR DCT FINUT DCT LKT/N0478F390 DCT OCS DCT CEBAL DCT CHE DCT RLG DCT BRK DCT EZEEE DCT MDANO JOVEM6
Aircraft A35K/H-SDE2E3GHIJ3J4J5LM1ORWXY/LB1D1

Departure

Time N/A
Airport Tokyo Haneda International Airport (RJTT)

Arrival

Time 2026-05-07 13:49
Airport Dallas Fort Worth International Airport (KDFW)
Time Latitude Longitude Altitude Speed Heading
2026-05-07 13:26 33.77267 -98.42496 27536 ft 510 kts 129°
2026-05-07 13:26 33.75474 -98.38842 27046 ft 505 kts 129°
2026-05-07 13:26 33.73694 -98.35218 26566 ft 501 kts 128°
2026-05-07 13:26 33.71923 -98.31616 26080 ft 497 kts 128°
2026-05-07 13:27 33.70172 -98.28060 25616 ft 494 kts 128°
2026-05-07 13:27 33.68429 -98.24520 25253 ft 488 kts 128°
2026-05-07 13:27 33.66747 -98.21099 24976 ft 478 kts 128°
2026-05-07 13:27 33.65032 -98.17626 24504 ft 476 kts 128°
2026-05-07 13:28 33.63368 -98.14264 24054 ft 474 kts 127°
2026-05-07 13:28 33.61667 -98.10852 23571 ft 479 kts 127°
2026-05-07 13:28 33.59955 -98.07413 23050 ft 480 kts 127°
2026-05-07 13:28 33.58251 -98.03984 22593 ft 477 kts 127°
2026-05-07 13:29 33.56556 -98.00573 22141 ft 473 kts 127°
2026-05-07 13:29 33.54875 -97.97197 21692 ft 469 kts 127°
2026-05-07 13:29 33.53208 -97.93852 21236 ft 466 kts 127°
2026-05-07 13:29 33.51549 -97.90528 20802 ft 463 kts 127°
2026-05-07 13:30 33.49902 -97.87225 20376 ft 459 kts 127°
2026-05-07 13:30 33.48272 -97.83952 19921 ft 456 kts 127°
2026-05-07 13:30 33.46650 -97.80698 19492 ft 453 kts 127°
2026-05-07 13:30 33.45042 -97.77474 19063 ft 449 kts 127°
2026-05-07 13:31 33.43461 -97.74309 18614 ft 446 kts 126°
2026-05-07 13:31 33.41880 -97.71144 18166 ft 441 kts 126°
2026-05-07 13:31 33.40315 -97.68015 17850 ft 433 kts 126°
2026-05-07 13:31 33.38758 -97.64973 17385 ft 425 kts 130°
2026-05-07 13:32 33.36878 -97.62338 16982 ft 411 kts 141°
2026-05-07 13:32 33.34858 -97.59940 16429 ft 408 kts 143°
2026-05-07 13:32 33.32830 -97.57581 15981 ft 404 kts 143°
2026-05-07 13:32 33.30835 -97.55253 15672 ft 396 kts 142°
2026-05-07 13:33 33.28894 -97.52979 15429 ft 386 kts 142°
2026-05-07 13:33 33.26986 -97.50746 15036 ft 383 kts 143°
2026-05-07 13:33 33.25076 -97.48520 14514 ft 383 kts 142°
2026-05-07 13:33 33.23185 -97.46307 14154 ft 378 kts 142°
2026-05-07 13:34 33.21335 -97.44136 13960 ft 367 kts 142°
2026-05-07 13:34 33.17802 -97.39995 13546 ft 346 kts 142°
2026-05-07 13:34 33.16094 -97.38001 13205 ft 341 kts 142°
2026-05-07 13:35 33.14406 -97.36033 12845 ft 337 kts 141°
2026-05-07 13:35 33.12742 -97.34093 12487 ft 333 kts 141°
2026-05-07 13:35 33.11090 -97.32167 12137 ft 329 kts 141°
2026-05-07 13:35 33.09477 -97.30283 12017 ft 322 kts 141°
2026-05-07 13:36 33.07876 -97.28416 12009 ft 322 kts 141°
2026-05-07 13:36 33.06276 -97.26551 12010 ft 321 kts 141°
2026-05-07 13:36 33.04679 -97.24690 12009 ft 321 kts 141°
2026-05-07 13:36 33.03078 -97.22826 12007 ft 321 kts 141°
2026-05-07 13:37 33.01478 -97.20963 12008 ft 321 kts 141°
2026-05-07 13:37 32.99911 -97.19138 11999 ft 313 kts 141°
2026-05-07 13:37 32.98272 -97.17538 11986 ft 285 kts 160°
2026-05-07 13:37 32.96501 -97.16957 12009 ft 260 kts 184°
2026-05-07 13:38 32.94711 -97.16822 11980 ft 257 kts 187°
2026-05-07 13:38 32.92904 -97.16746 11994 ft 256 kts 187°
2026-05-07 13:38 32.91128 -97.16667 11996 ft 255 kts 187°
2026-05-07 13:38 32.89349 -97.16581 11997 ft 256 kts 187°
2026-05-07 13:39 32.87614 -97.16490 11794 ft 249 kts 186°
2026-05-07 13:39 32.85885 -97.16398 11213 ft 250 kts 186°
2026-05-07 13:39 32.84145 -97.16308 10627 ft 251 kts 185°
2026-05-07 13:39 32.82404 -97.16215 10106 ft 250 kts 184°
2026-05-07 13:40 32.80668 -97.16120 9538 ft 249 kts 183°
2026-05-07 13:40 32.78947 -97.16039 9034 ft 246 kts 185°
2026-05-07 13:40 32.77244 -97.16036 8496 ft 243 kts 186°
2026-05-07 13:40 32.75557 -97.16051 7935 ft 242 kts 186°
2026-05-07 13:41 32.73880 -97.16062 7411 ft 240 kts 185°
2026-05-07 13:41 32.72218 -97.16067 6912 ft 238 kts 185°
2026-05-07 13:41 32.70580 -97.15676 6326 ft 245 kts 156°
2026-05-07 13:41 32.69162 -97.14551 5802 ft 245 kts 143°
2026-05-07 13:42 32.67816 -97.13322 5329 ft 243 kts 142°
2026-05-07 13:42 32.66498 -97.12132 4885 ft 238 kts 142°
2026-05-07 13:42 32.65298 -97.10820 4337 ft 232 kts 120°
2026-05-07 13:42 32.64818 -97.09078 4015 ft 218 kts 87°
2026-05-07 13:43 32.65116 -97.07396 3823 ft 204 kts 66°
2026-05-07 13:43 32.65653 -97.05860 3539 ft 200 kts 63°
2026-05-07 13:43 32.66275 -97.04409 3283 ft 194 kts 50°
2026-05-07 13:43 32.67350 -97.03572 3088 ft 183 kts 14°
2026-05-07 13:44 32.68575 -97.03668 3023 ft 177 kts 348°
2026-05-07 13:44 32.69748 -97.04139 3013 ft 178 kts 342°
2026-05-07 13:44 32.70916 -97.04647 3024 ft 179 kts 343°
2026-05-07 13:44 32.72090 -97.05164 3023 ft 180 kts 343°
2026-05-07 13:45 32.73297 -97.05506 3028 ft 178 kts 357°
2026-05-07 13:45 32.74520 -97.05560 3035 ft 172 kts
2026-05-07 13:45 32.75694 -97.05547 3019 ft 167 kts
2026-05-07 13:45 32.76819 -97.05538 2854 ft 159 kts
2026-05-07 13:46 32.77888 -97.05534 2630 ft 148 kts
2026-05-07 13:46 32.78880 -97.05528 2433 ft 139 kts
2026-05-07 13:46 32.79842 -97.05523 2257 ft 139 kts
2026-05-07 13:46 32.80806 -97.05519 2039 ft 138 kts
2026-05-07 13:47 32.81766 -97.05515 1842 ft 137 kts
2026-05-07 13:47 32.82725 -97.05509 1664 ft 138 kts
2026-05-07 13:47 32.83686 -97.05504 1465 ft 138 kts
2026-05-07 13:47 32.84648 -97.05499 1283 ft 138 kts
2026-05-07 13:48 32.85604 -97.05494 1087 ft 137 kts
2026-05-07 13:48 32.86557 -97.05484 902 ft 136 kts
2026-05-07 13:48 32.87510 -97.05483 728 ft 138 kts 359°
2026-05-07 13:48 32.88463 -97.05479 603 ft 132 kts
2026-05-07 13:49 32.89240 -97.05475 604 ft 77 kts
2026-05-07 13:49 32.89626 -97.05474 618 ft 56 kts
2026-05-07 13:49 32.89828 -97.05456 630 ft 36 kts 15°
2026-05-07 13:49 32.90014 -97.05348 626 ft 22 kts 30°
2026-05-07 13:50 32.90108 -97.05277 618 ft 13 kts 51°
2026-05-07 13:50 32.90117 -97.05157 605 ft 17 kts 90°
2026-05-07 13:50 32.90116 -97.05008 604 ft 19 kts 90°
2026-05-07 13:50 32.90117 -97.04846 605 ft 15 kts 90°
2026-05-07 13:51 32.90095 -97.04774 621 ft 9 kts 150°
2026-05-07 13:51 32.90020 -97.04764 614 ft 15 kts 180°
2026-05-07 13:51 32.89889 -97.04764 603 ft 22 kts 180°
2026-05-07 13:51 32.89725 -97.04764 603 ft 25 kts 180°
2026-05-07 13:52 32.89545 -97.04765 603 ft 27 kts 180°
2026-05-07 13:52 32.89440 -97.04746 601 ft 10 kts 128°
2026-05-07 13:52 32.89430 -97.04666 603 ft 10 kts 92°
2026-05-07 13:52 32.89427 -97.04575 617 ft 13 kts 91°
2026-05-07 13:53 32.89427 -97.04458 615 ft 16 kts 91°
2026-05-07 13:53 32.89442 -97.04371 616 ft 9 kts 40°
2026-05-07 13:53 32.89499 -97.04370 615 ft 7 kts 344°
2026-05-07 13:53 32.89504 -97.04372 617 ft 0 kts 344°